Mackinac Island, MI

6:56 AM EST on February 11, 2016 (GMT -0500)
Mackinac Island

Weather History for KMCD - February, 2013

Change the Weather History Date:

Wednesday, February 27, 2013

  Actual Average Record
Temperature  
Mean Temperature 30 °F -  
Max Temperature 33 °F 26 °F 42 °F (1983)
Min Temperature 28 °F 15 °F -15 °F (2014)
Degree Days  
Heating Degree Days 34    
Moisture  
Dew Point 28 °F    
Average Humidity 87    
Maximum Humidity 95    
Minimum Humidity 72    
Precipitation  
Precipitation 0.03 in - - ()
Sea Level Pressure  
Sea Level Pressure 29.71 in    
Wind  
Wind Speed 16 mph (NE)    
Max Wind Speed 24 mph    
Max Gust Speed 32 mph    
Visibility 7 miles    
Events Snow    
Averages and records for this station are not official NWS values.
T = Trace of Precipitation, MM = Missing Value Source: NWS Daily Summary

Daily Weather History Graph

Daily Weather History Graph

Search for Another Location

Airport or City:

Trip Planner

Search our weather history database for the weather conditions in past years. The results will help you decide how hot, cold, wet, or windy it might be!

Date:

Astronomy

Feb. 27, 2013 Rise Set
Actual Time 7:20 AM EST 6:22 PM EST
Civil Twilight 6:50 AM EST 6:52 PM EST
Nautical Twilight 6:15 AM EST 7:27 PM EST
Astronomical Twilight 5:41 AM EST 8:01 PM EST
Moon 8:53 PM EST (2/27) 7:46 AM EST (2/27)
Length of Visible Light 12h 02m
Length of Day
11h 02m
Waning Gibbous, 96% of the Moon is Illuminated
Feb 27
Waning Gibbous
Mar 4
Last Quarter
Mar 11
New
Mar 19
First Quarter
Mar 27
Full

Hourly Weather History & Observations

Time (EST) Temp. Windchill Dew Point Humidity Pressure Visibility Wind Dir Wind Speed Gust Speed Precip Events Conditions
12:14 AM 31.1 °F 17.7 °F 23.9 °F 75% 29.80 in 10.0 mi ENE 24.2 mph 32.2 mph N/A   Clear
12:33 AM 31.3 °F 19.2 °F 23.7 °F 74% 29.79 in 10.0 mi ENE 19.6 mph 28.8 mph N/A   Clear
12:53 AM 31.1 °F 19.3 °F 23.9 °F 75% 29.78 in 10.0 mi ENE 18.4 mph 27.6 mph N/A   Clear
1:14 AM 31.1 °F 19.7 °F 23.7 °F 74% 29.77 in 10.0 mi ENE 17.3 mph 26.5 mph N/A   Clear
1:33 AM 31.3 °F 19.5 °F 23.9 °F 74% 29.77 in 10.0 mi ENE 18.4 mph 26.5 mph N/A   Scattered Clouds
1:53 AM 31.6 °F 20.7 °F 23.9 °F 73% 29.76 in 10.0 mi ENE 16.1 mph 26.5 mph N/A   Overcast
2:13 AM 31.6 °F 20.4 °F 23.7 °F 73% 29.76 in 10.0 mi ENE 17.3 mph 25.3 mph N/A   Overcast
2:33 AM 32.0 °F 21.2 °F 23.9 °F 72% 29.75 in 10.0 mi ENE 16.1 mph 27.6 mph N/A   Overcast
2:53 AM 31.6 °F 20.0 °F 24.4 °F 75% 29.74 in 7.0 mi ENE 18.4 mph 27.6 mph N/A Snow Light Snow
3:14 AM 30.9 °F 19.8 °F 25.5 °F 80% 29.73 in 3.0 mi ENE 16.1 mph 27.6 mph N/A Snow Light Snow
3:33 AM 30.2 °F 17.8 °F 26.1 °F 85% 29.72 in 3.0 mi NE 19.6 mph 26.5 mph N/A Snow Light Snow
3:53 AM 30.0 °F 19.5 °F 26.2 °F 86% 29.72 in 3.0 mi ENE 13.8 mph 21.9 mph N/A Snow Light Snow
4:33 AM 30.0 °F 18.3 °F 27.1 °F 89% 29.71 in 4.0 mi NE 17.3 mph 25.3 mph N/A Snow Light Snow
4:54 AM 29.8 °F 17.7 °F 27.3 °F 90% 29.72 in 4.0 mi NE 18.4 mph 24.2 mph N/A Snow Light Snow
5:13 AM 29.8 °F 17.7 °F 27.5 °F 91% 29.71 in 3.0 mi NE 18.4 mph 24.2 mph N/A Snow Light Snow
5:33 AM 29.7 °F 17.4 °F 27.5 °F 92% 29.71 in 2.5 mi NE 18.4 mph 23.0 mph N/A Snow Light Snow
5:54 AM 29.7 °F 17.8 °F 27.5 °F 92% 29.71 in 1.8 mi NE 17.3 mph - N/A Snow Light Snow
6:13 AM 29.5 °F 18.4 °F 27.9 °F 94% 29.71 in 1.5 mi NE 15.0 mph 23.0 mph N/A Snow Light Snow
6:33 AM 29.1 °F 18.9 °F 27.5 °F 94% 29.71 in 1.2 mi NE 12.7 mph - 0.01 in Snow Light Snow
6:54 AM 28.8 °F 19.0 °F 27.3 °F 94% 29.71 in 1.8 mi NNE 11.5 mph - 0.02 in Snow Light Snow
7:33 AM 28.4 °F 18.5 °F 27.1 °F 95% 29.71 in 1.2 mi NE 11.5 mph 16.1 mph 0.01 in Snow Light Snow
7:54 AM 28.6 °F 17.2 °F 27.0 °F 94% 29.72 in 1.2 mi NE 15.0 mph 19.6 mph 0.01 in Snow Light Snow
8:13 AM 28.8 °F 19.0 °F 27.1 °F 94% 29.72 in 1.2 mi NE 11.5 mph - N/A Snow Light Snow
8:33 AM 28.9 °F 17.3 °F 27.1 °F 93% 29.71 in 2.0 mi NE 16.1 mph 23.0 mph N/A Snow Light Snow
8:54 AM 29.3 °F 18.2 °F 27.3 °F 92% 29.72 in 2.0 mi NE 15.0 mph 24.2 mph N/A Snow Light Snow
9:13 AM 29.3 °F 18.2 °F 27.5 °F 93% 29.72 in 2.5 mi NE 15.0 mph 19.6 mph N/A Snow Light Snow
9:54 AM 30.2 °F 19.8 °F 27.9 °F 91% 29.71 in 1.2 mi NE 13.8 mph 20.7 mph N/A Snow Light Snow
10:13 AM 30.4 °F 19.1 °F 28.2 °F 92% 29.71 in 1.2 mi NE 16.1 mph - N/A Snow Light Snow
10:33 AM 30.7 °F 20.4 °F 28.4 °F 91% 29.70 in 2.0 mi NE 13.8 mph 21.9 mph N/A Snow Light Snow
10:54 AM 31.1 °F 20.1 °F 28.4 °F 90% 29.70 in 7.0 mi NE 16.1 mph 21.9 mph N/A Snow Light Snow
11:13 AM 31.8 °F 21.4 °F 28.6 °F 88% 29.69 in 10.0 mi NE 15.0 mph 20.7 mph N/A   Overcast
11:33 AM 32.0 °F 20.8 °F 28.8 °F 88% 29.69 in 10.0 mi NE 17.3 mph 21.9 mph N/A   Overcast
11:54 AM 32.0 °F 21.6 °F 28.8 °F 88% 29.69 in 10.0 mi NE 15.0 mph 21.9 mph N/A   Overcast
12:13 PM 32.0 °F 21.2 °F 28.9 °F 88% 29.69 in 10.0 mi ENE 16.1 mph 21.9 mph N/A   Overcast
12:33 PM 32.4 °F 21.7 °F 29.1 °F 88% 29.69 in 10.0 mi NE 16.1 mph 20.7 mph N/A   Overcast
12:54 PM 32.4 °F 23.0 °F 29.1 °F 88% 29.68 in 10.0 mi NE 12.7 mph 20.7 mph N/A   Overcast
1:13 PM 32.5 °F 23.2 °F 29.3 °F 88% 29.68 in 10.0 mi NE 12.7 mph 19.6 mph N/A   Overcast
1:33 PM 32.9 °F 23.7 °F 29.3 °F 87% 29.68 in 10.0 mi NE 12.7 mph 19.6 mph N/A   Overcast
1:54 PM 32.9 °F 23.2 °F 29.3 °F 87% 29.68 in 10.0 mi NE 13.8 mph 20.7 mph N/A   Overcast
2:13 PM 32.9 °F 23.7 °F 29.3 °F 87% 29.67 in 10.0 mi NE 12.7 mph 19.6 mph N/A   Overcast
2:33 PM 33.1 °F 23.4 °F 29.3 °F 86% 29.67 in 10.0 mi NE 13.8 mph 18.4 mph N/A   Overcast
2:54 PM 33.1 °F 23.4 °F 29.3 °F 86% 29.67 in 10.0 mi NE 13.8 mph 19.6 mph N/A   Overcast
3:34 PM 33.4 °F 23.9 °F 29.1 °F 84% 29.68 in 10.0 mi NE 13.8 mph 19.6 mph N/A   Overcast
3:53 PM 33.3 °F 25.1 °F 29.3 °F 85% 29.68 in 10.0 mi NE 10.4 mph - N/A   Overcast
4:13 PM 33.3 °F 24.1 °F 29.3 °F 85% 29.68 in 10.0 mi NE 12.7 mph - N/A   Overcast
4:34 PM 33.3 °F 23.7 °F 29.3 °F 85% 29.68 in 10.0 mi NE 13.8 mph 18.4 mph N/A   Overcast
4:53 PM 33.1 °F 23.4 °F 29.3 °F 86% 29.69 in 10.0 mi NE 13.8 mph - N/A   Overcast
5:13 PM 32.9 °F 23.2 °F 29.3 °F 87% 29.69 in 10.0 mi NE 13.8 mph 19.6 mph N/A   Overcast
5:34 PM 33.1 °F 24.4 °F 29.7 °F 87% 29.69 in 10.0 mi NE 11.5 mph 18.4 mph N/A   Overcast
5:53 PM 33.1 °F 23.9 °F 29.5 °F 87% 29.70 in 10.0 mi NE 12.7 mph 17.3 mph N/A   Overcast
6:13 PM 33.1 °F 23.4 °F 29.3 °F 86% 29.70 in 10.0 mi NNE 13.8 mph - N/A   Overcast
6:33 PM 33.1 °F 24.4 °F 29.3 °F 86% 29.71 in 7.0 mi NE 11.5 mph 19.6 mph N/A   Overcast
6:53 PM 32.9 °F 24.1 °F 29.3 °F 87% 29.71 in 10.0 mi NNE 11.5 mph - N/A   Overcast
7:13 PM 32.9 °F 23.7 °F 29.7 °F 88% 29.71 in 7.0 mi NNE 12.7 mph 17.3 mph N/A   Overcast
7:33 PM 32.5 °F 22.7 °F 29.5 °F 88% 29.72 in 10.0 mi NE 13.8 mph 19.6 mph N/A   Overcast
7:53 PM 32.0 °F 22.5 °F 29.7 °F 91% 29.72 in 7.0 mi NE 12.7 mph 19.6 mph N/A   Overcast
8:13 PM 32.0 °F 23.6 °F 29.7 °F 91% 29.72 in 10.0 mi NE 10.4 mph 18.4 mph N/A   Overcast
8:33 PM 32.0 °F 22.1 °F 29.3 °F 90% 29.72 in 10.0 mi NE 13.8 mph 17.3 mph N/A   Overcast
8:53 PM 32.0 °F 22.5 °F 29.1 °F 89% 29.72 in 10.0 mi NE 12.7 mph - N/A   Overcast
9:14 PM 32.0 °F 23.0 °F 29.3 °F 90% 29.72 in 7.0 mi NNE 11.5 mph 17.3 mph N/A   Overcast
9:33 PM 32.0 °F 23.0 °F 29.3 °F 90% 29.72 in 10.0 mi NNE 11.5 mph - N/A   Overcast
9:53 PM 32.0 °F 22.5 °F 29.1 °F 89% 29.72 in 10.0 mi NNE 12.7 mph - N/A   Overcast
10:14 PM 32.0 °F 23.6 °F 29.3 °F 90% 29.72 in 7.0 mi NNE 10.4 mph - N/A   Overcast
10:33 PM 32.0 °F 24.2 °F 29.5 °F 90% 29.72 in 7.0 mi NNE 9.2 mph - N/A   Overcast
10:53 PM 32.0 °F 22.5 °F 29.7 °F 91% 29.71 in 7.0 mi NNE 12.7 mph 17.3 mph N/A   Overcast
11:14 PM 32.0 °F 22.5 °F 29.1 °F 89% 29.71 in 10.0 mi NNE 12.7 mph 17.3 mph N/A   Overcast
11:33 PM 32.0 °F 23.0 °F 28.9 °F 88% 29.71 in 10.0 mi NNE 11.5 mph 17.3 mph N/A   Overcast
11:53 PM 32.0 °F 23.0 °F 28.9 °F 88% 29.71 in 10.0 mi NNE 11.5 mph 19.6 mph N/A   Overcast